,,Stat5,,Stat1,,Stat2,,Stat3,,Stat4,,Wind1,,Wind1,
time,status,PA1M_AVG,status,PR1M_SUM,status,RH1M_AVG,status,SR1M_AVG,status,TA1M_AVG,status,W1dAve1m,status,W1sAve1m,
2002-01-25, 00:00:00,VALID,917.838,VALID,0,VALID,96.2236,VALID,-0.0169808,VALID,20.1232,VALID,143,VALID,0.0685764,
2002-01-25, 00:01:00,VALID,917.824,VALID,0,VALID,96.3024,VALID,0,VALID,20.1202,VALID,126,VALID,0.209671,
2002-01-25, 00:02:00,VALID,917.82,VALID,0,VALID,96.3368,VALID,0,VALID,20.104,VALID,150,VALID,0.502111,
2002-01-25, 00:03:00,VALID,917.813,VALID,0,VALID,96.3825,VALID,-0.0169808,VALID,20.1038,VALID,141,VALID,0.247796,
2002-01-25, 00:04:00,VALID,917.82,VALID,0,VALID,96.4156,VALID,-0.0169808,VALID,20.1008,VALID,112,VALID,0.36951,
2002-01-25, 00:05:00,VALID,917.83,VALID,0,VALID,96.408,VALID,0,VALID,20.0909,VALID,116,VALID,0.670508,
2002-01-25, 00:06:00,VALID,917.817,VALID,0,VALID,96.4983,VALID,0,VALID,20.0849,VALID,140,VALID,0.308498,
2002-01-25, 00:07:00,VALID,917.81,VALID,0,VALID,96.5885,VALID,0,VALID,20.0717,VALID,135,VALID,0.190995,
2002-01-25, 00:08:00,VALID,917.78,VALID,0,VALID,96.6725,VALID,-0.0169808,VALID,20.0586,VALID,154,VALID,0.498972,
2002-01-25, 00:09:00,VALID,917.758,VALID,0,VALID,96.6776,VALID,0,VALID,20.062,VALID,153,VALID,0.237891,
2002-01-25, 00:10:00,VALID,917.757,VALID,0,VALID,96.7335,VALID,0,VALID,20.066,VALID,153,VALID,0.212582,
2002-01-25, 00:11:00,VALID,917.738,VALID,0,VALID,96.7755,VALID,-0.0169808,VALID,20.0588,VALID,149,VALID,0.244655,
2002-01-25, 00:12:00,VALID,917.715,VALID,0,VALID,96.7488,VALID,0,VALID,20.0588,VALID,131,VALID,0.430532,
2002-01-25, 00:13:00,VALID,917.697,VALID,0,VALID,96.7462,VALID,-0.0169808,VALID,20.0521,VALID,121,VALID,0.329861,
2002-01-25, 00:14:00,VALID,917.691,VALID,0,VALID,96.7475,VALID,-0.0339617,VALID,20.0394,VALID,102,VALID,0.0119358,
2002-01-25, 00:15:00,VALID,917.679,VALID,0,VALID,96.7907,VALID,0,VALID,20.0427,VALID,94,VALID,0.000952744,
2002-01-25, 00:16:00,VALID,917.666,VALID,0,VALID,96.806,VALID,0,VALID,20.0394,VALID,110,VALID,0,
2002-01-25, 00:17:00,VALID,917.657,VALID,0,VALID,96.8568,VALID,0,VALID,20.0394,VALID,64,VALID,0,
2002-01-25, 00:18:00,VALID,917.656,VALID,0,VALID,96.9103,VALID,-0.0169808,VALID,20.0394,VALID,35,VALID,0,
2002-01-25, 00:19:00,VALID,917.649,VALID,0,VALID,96.9459,VALID,0,VALID,20.0389,VALID,35,VALID,0,
2002-01-25, 00:20:00,VALID,917.643,VALID,0,VALID,96.9637,VALID,-0.0169808,VALID,20.0524,VALID,35,VALID,0,
2002-01-25, 00:21:00,VALID,917.637,VALID,0,VALID,96.9103,VALID,-0.0169808,VALID,20.0233,VALID,35,VALID,0,
2002-01-25, 00:22:00,VALID,917.645,VALID,0,VALID,96.82,VALID,-0.0169808,VALID,20.0233,VALID,85,VALID,0.307509,
2002-01-25, 00:23:00,VALID,917.654,VALID,0,VALID,96.6076,VALID,-0.0169808,VALID,20.0109,VALID,94,VALID,0.71136,
2002-01-25, 00:24:00,VALID,917.651,VALID,0,VALID,96.5275,VALID,0.0169808,VALID,19.991,VALID,75,VALID,0.272991,
2002-01-25, 00:25:00,VALID,917.66,VALID,0,VALID,96.5046,VALID,-0.0339617,VALID,19.9974,VALID,71,VALID,0.0119243,
2002-01-25, 00:26:00,VALID,917.662,VALID,0,VALID,96.5262,VALID,0,VALID,19.9972,VALID,36,VALID,0.358319,
2002-01-25, 00:27:00,VALID,917.658,VALID,0,VALID,96.4792,VALID,0,VALID,20.0009,VALID,55,VALID,0.320313,
2002-01-25, 00:28:00,VALID,917.655,VALID,0,VALID,96.4487,VALID,-0.0169808,VALID,19.981,VALID,131,VALID,0.590372,
2002-01-25, 00:29:00,VALID,917.648,VALID,0,VALID,96.4423,VALID,-0.0169808,VALID,19.9845,VALID,145,VALID,0.368945,
2002-01-25, 00:30:00,VALID,917.647,VALID,0,VALID,96.427,VALID,0,VALID,19.9915,VALID,152,VALID,0.00596217,
2002-01-25, 00:31:00,VALID,917.647,VALID,0,VALID,96.3965,VALID,0,VALID,19.988,VALID,115,VALID,0.270182,
2002-01-25, 00:32:00,VALID,917.642,VALID,0,VALID,96.263,VALID,0,VALID,19.9915,VALID,76,VALID,0.507813,
2002-01-25, 00:33:00,VALID,917.642,VALID,0,VALID,96.2452,VALID,0,VALID,20.0106,VALID,78,VALID,0.345228,
2002-01-25, 00:34:00,VALID,917.646,VALID,0,VALID,95.912,VALID,-0.0339617,VALID,19.9979,VALID,154,VALID,0.570313,
2002-01-25, 00:35:00,VALID,917.625,VALID,0,VALID,95.7111,VALID,-0.0169808,VALID,20.0106,VALID,132,VALID,0.313086,
2002-01-25, 00:36:00,VALID,917.637,VALID,0,VALID,95.4835,VALID,0,VALID,20.0171,VALID,111,VALID,0.272837,
2002-01-25, 00:37:00,VALID,917.626,VALID,0,VALID,95.3335,VALID,-0.0169808,VALID,20.0461,VALID,162,VALID,0.102796,
2002-01-25, 00:38:00,VALID,917.628,VALID,0,VALID,95.3004,VALID,0,VALID,20.0658,VALID,135,VALID,0.0106908,
2002-01-25, 00:39:00,VALID,917.611,VALID,0,VALID,95.0474,VALID,-0.0339617,VALID,20.075,VALID,167,VALID,0.441211,
2002-01-25, 00:40:00,VALID,917.589,VALID,0,VALID,94.8147,VALID,-0.0169808,VALID,20.0946,VALID,154,VALID,0.35259,
2002-01-25, 00:41:00,VALID,917.582,VALID,0,VALID,94.8299,VALID,0,VALID,20.1334,VALID,39,VALID,0.136719,
2002-01-25, 00:42:00,VALID,917.573,VALID,0,VALID,94.6646,VALID,0,VALID,20.159,VALID,45,VALID,0.00232264,
2002-01-25, 00:43:00,VALID,917.576,VALID,0,VALID,94.6773,VALID,0,VALID,20.1784,VALID,45,VALID,0.00108507,
2002-01-25, 00:44:00,VALID,917.57,VALID,0,VALID,93.9957,VALID,0,VALID,20.1853,VALID,95,VALID,0.496311,
2002-01-25, 00:45:00,VALID,917.56,VALID,0,VALID,93.5163,VALID,0,VALID,20.1853,VALID,22,VALID,1.26925,
2002-01-25, 00:46:00,VALID,917.549,VALID,0,VALID,93.5558,VALID,-0.0509425,VALID,20.2567,VALID,28,VALID,1.00591,
2002-01-25, 00:47:00,VALID,917.548,VALID,0,VALID,93.3841,VALID,0,VALID,20.2728,VALID,108,VALID,0.477385,
2002-01-25, 00:48:00,VALID,917.537,VALID,0,VALID,93.3866,VALID,0,VALID,20.2825,VALID,104,VALID,0.325247,
2002-01-25, 00:49:00,VALID,917.526,VALID,0,VALID,93.5278,VALID,0,VALID,20.2691,VALID,132,VALID,0.613948,
2002-01-25, 00:50:00,VALID,917.528,VALID,0,VALID,93.7033,VALID,-0.0169808,VALID,20.2629,VALID,113,VALID,0.16653,
2002-01-25, 00:51:00,VALID,917.525,VALID,0,VALID,93.8203,VALID,0,VALID,20.243,VALID,53,VALID,0.244449,
2002-01-25, 00:52:00,VALID,917.521,VALID,0,VALID,94.1165,VALID,0,VALID,20.2462,VALID,29,VALID,0.263889,
2002-01-25, 00:53:00,VALID,917.505,VALID,0,VALID,94.1471,VALID,0,VALID,20.2333,VALID,52,VALID,0.00844595,
2002-01-25, 00:54:00,VALID,917.468,VALID,0,VALID,94.1712,VALID,-0.0169808,VALID,20.1975,VALID,52,VALID,0,
2002-01-25, 00:55:00,VALID,917.461,VALID,0,VALID,94.3416,VALID,0,VALID,20.1878,VALID,52,VALID,0,
2002-01-25, 00:56:00,VALID,917.449,VALID,0,VALID,94.5031,VALID,-0.0169808,VALID,20.1751,VALID,54,VALID,0,
2002-01-25, 00:57:00,VALID,917.435,VALID,0,VALID,94.6265,VALID,-0.0509425,VALID,20.1592,VALID,55,VALID,0,
2002-01-25, 00:58:00,VALID,917.419,VALID,0,VALID,94.7574,VALID,-0.0169808,VALID,20.1627,VALID,34,VALID,0.398015,
2002-01-25, 00:59:00,VALID,917.412,VALID,0,VALID,94.9253,VALID,-0.0169808,VALID,20.1364,VALID,36,VALID,0.925781,
2002-01-25, 01:00:00,VALID,917.401,VALID,0,VALID,95.1262,VALID,0,VALID,20.1299,VALID,29,VALID,0.917969,
2002-01-25, 01:01:00,VALID,917.397,VALID,0,VALID,95.1834,VALID,-0.0339617,VALID,20.1108,VALID,47,VALID,0.815755,
2002-01-25, 01:02:00,VALID,917.391,VALID,0,VALID,95.2216,VALID,0,VALID,20.0747,VALID,49,VALID,0.501478,
2002-01-25, 01:03:00,VALID,917.367,VALID,0,VALID,95.3004,VALID,-0.0509425,VALID,20.0429,VALID,75,VALID,0.640625,
2002-01-25, 01:04:00,VALID,917.352,VALID,0,VALID,95.3754,VALID,-0.0169808,VALID,20.0198,VALID,56,VALID,0.491268,
2002-01-25, 01:05:00,VALID,917.324,VALID,0,VALID,95.5865,VALID,0.0169808,VALID,20.0074,VALID,27,VALID,0.658789,
2002-01-25, 01:06:00,VALID,917.286,VALID,0,VALID,95.7544,VALID,0,VALID,20.0009,VALID,21,VALID,0.736979,
2002-01-25, 01:07:00,VALID,917.277,VALID,0,VALID,95.7175,VALID,-0.0679233,VALID,19.978,VALID,37,VALID,0.947163,
2002-01-25, 01:08:00,VALID,917.259,VALID,0,VALID,95.6946,VALID,-0.0849042,VALID,19.9865,VALID,76,VALID,0.707031,
2002-01-25, 01:09:00,VALID,917.243,VALID,0,VALID,95.748,VALID,-0.101885,VALID,19.9669,VALID,55,VALID,0.817383,
2002-01-25, 01:10:00,VALID,917.222,VALID,0,VALID,95.706,VALID,-0.101885,VALID,19.9472,VALID,73,VALID,0.451275,
2002-01-25, 01:11:00,VALID,917.217,VALID,0,VALID,95.7124,VALID,-0.101885,VALID,19.9308,VALID,66,VALID,0.804688,
2002-01-25, 01:12:00,VALID,917.211,VALID,0,VALID,95.8065,VALID,-0.101885,VALID,19.9371,VALID,69,VALID,0.858742,
2002-01-25, 01:13:00,VALID,917.2,VALID,0,VALID,95.7404,VALID,-0.101885,VALID,19.9219,VALID,84,VALID,0.621311,
2002-01-25, 01:14:00,VALID,917.176,VALID,0,VALID,95.6984,VALID,-0.0849042,VALID,19.912,VALID,86,VALID,0.648438,
2002-01-25, 01:15:00,VALID,917.158,VALID,0,VALID,95.6158,VALID,-0.0849042,VALID,19.902,VALID,111,VALID,0.575648,
2002-01-25, 01:16:00,VALID,917.154,VALID,0,VALID,95.336,VALID,-0.101885,VALID,19.9052,VALID,116,VALID,0.733742,
2002-01-25, 01:17:00,VALID,917.15,VALID,0,VALID,95.1631,VALID,-0.101885,VALID,19.9147,VALID,99,VALID,0.264391,
2002-01-25, 01:18:00,VALID,917.144,VALID,0,VALID,95.1707,VALID,-0.0849042,VALID,19.9443,VALID,53,VALID,0.590872,
2002-01-25, 01:19:00,VALID,917.129,VALID,0,VALID,95.0308,VALID,-0.101885,VALID,19.9632,VALID,58,VALID,0.864901,
2002-01-25, 01:20:00,VALID,917.122,VALID,0,VALID,94.9761,VALID,-0.0849042,VALID,19.9927,VALID,71,VALID,0.59889,
2002-01-25, 01:21:00,VALID,917.109,VALID,0,VALID,95.0219,VALID,-0.0679233,VALID,19.9957,VALID,81,VALID,0.504523,
2002-01-25, 01:22:00,VALID,917.095,VALID,0,VALID,94.9774,VALID,-0.0849042,VALID,19.9992,VALID,96,VALID,0.807726,
2002-01-25, 01:23:00,VALID,917.079,VALID,0,VALID,95.0563,VALID,0,VALID,19.9815,VALID,120,VALID,0.493666,
2002-01-25, 01:24:00,VALID,917.073,VALID,0,VALID,95.2419,VALID,0,VALID,19.9815,VALID,132,VALID,0.461161,
2002-01-25, 01:25:00,VALID,917.06,VALID,0,VALID,95.3729,VALID,0.0169808,VALID,19.9651,VALID,129,VALID,0.729235,
2002-01-25, 01:26:00,VALID,917.038,VALID,0,VALID,95.4441,VALID,0.0339617,VALID,19.9388,VALID,116,VALID,0.96685,
2002-01-25, 01:27:00,VALID,916.993,VALID,0,VALID,95.3462,VALID,0,VALID,19.9266,VALID,111,VALID,0.72759,
2002-01-25, 01:28:00,VALID,916.967,VALID,0,VALID,95.4873,VALID,0.0169808,VALID,19.9201,VALID,112,VALID,0.829181,
2002-01-25, 01:29:00,VALID,916.944,VALID,0,VALID,95.5967,VALID,0.0169808,VALID,19.9137,VALID,121,VALID,1.05977,
2002-01-25, 01:30:00,VALID,916.92,VALID,0,VALID,95.5585,VALID,0,VALID,19.8943,VALID,104,VALID,0.769326,
2002-01-25, 01:31:00,VALID,916.908,VALID,0,VALID,95.6793,VALID,0,VALID,19.898,VALID,79,VALID,0.853516,
2002-01-25, 01:32:00,VALID,916.889,VALID,0,VALID,95.5992,VALID,0,VALID,19.8806,VALID,93,VALID,1.01774,
2002-01-25, 01:33:00,VALID,916.88,VALID,0,VALID,95.6463,VALID,0.0169808,VALID,19.868,VALID,78,VALID,0.899493,
2002-01-25, 01:34:00,VALID,916.884,VALID,0,VALID,95.6259,VALID,0.0339617,VALID,19.8647,VALID,92,VALID,0.93773,
2002-01-25, 01:35:00,VALID,916.878,VALID,0,VALID,95.4594,VALID,0,VALID,19.8521,VALID,90,VALID,1.3125,
2002-01-25, 01:36:00,VALID,916.862,VALID,0,VALID,95.4009,VALID,0.0679233,VALID,19.8521,VALID,69,VALID,0.836939,
2002-01-25, 01:37:00,VALID,916.846,VALID,0,VALID,95.3894,VALID,0.0339617,VALID,19.8446,VALID,86,VALID,0.744449,
2002-01-25, 01:38:00,VALID,916.819,VALID,0,VALID,95.4034,VALID,0.0339617,VALID,19.8461,VALID,92,VALID,0.530222,
2002-01-25, 01:39:00,VALID,916.81,VALID,0,VALID,95.2495,VALID,0.0339617,VALID,19.8222,VALID,83,VALID,0.926758,
2002-01-25, 01:40:00,VALID,916.797,VALID,0,VALID,95.1656,VALID,0.0339617,VALID,19.8225,VALID,95,VALID,0.914474,
2002-01-25, 01:41:00,VALID,916.777,VALID,0,VALID,95.0702,VALID,0.0509425,VALID,19.8128,VALID,86,VALID,1.0553,
2002-01-25, 01:42:00,VALID,916.789,VALID,0,VALID,95.0067,VALID,0,VALID,19.82,VALID,81,VALID,1.54899,
2002-01-25, 01:43:00,VALID,916.778,VALID,0,VALID,95.0028,VALID,0,VALID,19.823,VALID,78,VALID,1.23134,
2002-01-25, 01:44:00,VALID,916.773,VALID,0,VALID,94.9838,VALID,0.0339617,VALID,19.8066,VALID,92,VALID,0.925781,
2002-01-25, 01:45:00,VALID,916.755,VALID,0,VALID,95.0016,VALID,0.0849042,VALID,19.8033,VALID,80,VALID,0.981707,
2002-01-25, 01:46:00,VALID,916.746,VALID,0,VALID,95.0461,VALID,0.0509425,VALID,19.7869,VALID,101,VALID,1.09987,
2002-01-25, 01:47:00,VALID,916.744,VALID,0,VALID,95.0321,VALID,0.0339617,VALID,19.7904,VALID,108,VALID,0.446546,
2002-01-25, 01:48:00,VALID,916.736,VALID,0,VALID,95.1618,VALID,0.0339617,VALID,19.778,VALID,81,VALID,0.706826,
2002-01-25, 01:49:00,VALID,916.728,VALID,0,VALID,95.1821,VALID,0.0169808,VALID,19.7718,VALID,114,VALID,0.837416,
2002-01-25, 01:50:00,VALID,916.718,VALID,0,VALID,95.2088,VALID,0.0849042,VALID,19.7718,VALID,109,VALID,0.989309,
2002-01-25, 01:51:00,VALID,916.704,VALID,0,VALID,95.2991,VALID,0.0339617,VALID,19.7509,VALID,122,VALID,0.713816,
2002-01-25, 01:52:00,VALID,916.7,VALID,0,VALID,95.2851,VALID,0.0509425,VALID,19.7477,VALID,113,VALID,0.555773,
2002-01-25, 01:53:00,VALID,916.689,VALID,0,VALID,95.3093,VALID,-0.0509425,VALID,19.7666,VALID,135,VALID,0.695946,
2002-01-25, 01:54:00,VALID,916.685,VALID,0,VALID,95.3207,VALID,-0.101885,VALID,19.7569,VALID,131,VALID,1.25424,
2002-01-25, 01:55:00,VALID,916.67,VALID,0,VALID,95.0461,VALID,-0.101885,VALID,19.7437,VALID,112,VALID,1.40543,
2002-01-25, 01:56:00,VALID,916.669,VALID,0,VALID,94.9685,VALID,-0.0509425,VALID,19.7566,VALID,121,VALID,0.773438,
2002-01-25, 01:57:00,VALID,916.677,VALID,0,VALID,94.9672,VALID,-0.0849042,VALID,19.7693,VALID,120,VALID,0.612459,
2002-01-25, 01:58:00,VALID,916.694,VALID,0,VALID,94.9609,VALID,-0.101885,VALID,19.7857,VALID,121,VALID,0.375845,
2002-01-25, 01:59:00,VALID,916.695,VALID,0,VALID,94.9952,VALID,-0.101885,VALID,19.7954,VALID,139,VALID,0.792578,
2002-01-25, 02:00:00,VALID,916.707,VALID,0,VALID,95.0245,VALID,-0.0679233,VALID,19.7956,VALID,139,VALID,1.07401,
2002-01-25, 02:01:00,VALID,916.694,VALID,0,VALID,95.055,VALID,-0.0849042,VALID,19.7884,VALID,140,VALID,0.902778,
2002-01-25, 02:02:00,VALID,916.692,VALID,0,VALID,95.1478,VALID,-0.0679233,VALID,19.7951,VALID,159,VALID,1.07981,
2002-01-25, 02:03:00,VALID,916.7,VALID,0,VALID,95.2292,VALID,-0.0849042,VALID,19.8021,VALID,107,VALID,1.28294,
2002-01-25, 02:04:00,VALID,916.689,VALID,0,VALID,95.3347,VALID,-0.101885,VALID,19.7889,VALID,151,VALID,0.8125,
2002-01-25, 02:05:00,VALID,916.694,VALID,0,VALID,95.1936,VALID,-0.0849042,VALID,19.7792,VALID,147,VALID,1.64102,
2002-01-25, 02:06:00,VALID,916.67,VALID,0,VALID,95.1389,VALID,-0.0679233,VALID,19.7693,VALID,127,VALID,0.693309,
2002-01-25, 02:07:00,VALID,916.679,VALID,0,VALID,95.2521,VALID,-0.101885,VALID,19.7827,VALID,83,VALID,1.05777,
2002-01-25, 02:08:00,VALID,916.665,VALID,0,VALID,95.0779,VALID,-0.0679233,VALID,19.785,VALID,115,VALID,0.998766,
2002-01-25, 02:09:00,VALID,916.637,VALID,0,VALID,95.0753,VALID,-0.0169808,VALID,19.7817,VALID,137,VALID,1.12832,
2002-01-25, 02:10:00,VALID,916.626,VALID,0,VALID,95.0181,VALID,-0.0509425,VALID,19.7748,VALID,112,VALID,0.735403,
2002-01-25, 02:11:00,VALID,916.612,VALID,0,VALID,94.8757,VALID,-0.0169808,VALID,19.7912,VALID,124,VALID,0.966488,
2002-01-25, 02:12:00,VALID,916.596,VALID,0,VALID,94.8973,VALID,-0.0169808,VALID,19.7917,VALID,60,VALID,0.415963,
2002-01-25, 02:13:00,VALID,916.568,VALID,0,VALID,94.8808,VALID,-0.0509425,VALID,19.7979,VALID,119,VALID,0.693142,
2002-01-25, 02:14:00,VALID,916.554,VALID,0,VALID,94.69,VALID,-0.0679233,VALID,19.7815,VALID,104,VALID,1.03364,
2002-01-25, 02:15:00,VALID,916.553,VALID,0,VALID,94.6404,VALID,0,VALID,19.7882,VALID,91,VALID,1.1997,
2002-01-25, 02:16:00,VALID,916.547,VALID,0,VALID,94.7193,VALID,-0.0849042,VALID,19.7917,VALID,93,VALID,0.758446,
2002-01-25, 02:17:00,VALID,916.539,VALID,0,VALID,94.7701,VALID,-0.0679233,VALID,19.7847,VALID,132,VALID,0.44449,
2002-01-25, 02:18:00,VALID,916.532,VALID,0,VALID,94.8019,VALID,-0.0339617,VALID,19.7979,VALID,87,VALID,0.713405,
2002-01-25, 02:19:00,VALID,916.525,VALID,0,VALID,94.5794,VALID,-0.0169808,VALID,19.775,VALID,118,VALID,0.970656,
2002-01-25, 02:20:00,VALID,916.531,VALID,0,VALID,94.6926,VALID,-0.0339617,VALID,19.7713,VALID,118,VALID,0.952097,
2002-01-25, 02:21:00,VALID,916.52,VALID,0,VALID,94.8337,VALID,-0.0339617,VALID,19.7683,VALID,123,VALID,0.76213,
2002-01-25, 02:22:00,VALID,916.514,VALID,0,VALID,94.9062,VALID,-0.0339617,VALID,19.7691,VALID,118,VALID,0.720703,
2002-01-25, 02:23:00,VALID,916.516,VALID,0,VALID,94.9355,VALID,-0.0339617,VALID,19.7559,VALID,103,VALID,0.832559,
2002-01-25, 02:24:00,VALID,916.508,VALID,0,VALID,94.9291,VALID,-0.0339617,VALID,19.7395,VALID,119,VALID,1.15223,
2002-01-25, 02:25:00,VALID,916.497,VALID,0,VALID,94.9774,VALID,-0.0169808,VALID,19.7333,VALID,134,VALID,0.985609,
2002-01-25, 02:26:00,VALID,916.49,VALID,0,VALID,94.8681,VALID,-0.0169808,VALID,19.7136,VALID,121,VALID,1.06841,
2002-01-25, 02:27:00,VALID,916.455,VALID,0,VALID,94.8274,VALID,-0.0169808,VALID,19.7104,VALID,122,VALID,0.960115,
2002-01-25, 02:28:00,VALID,916.447,VALID,0,VALID,94.7879,VALID,0,VALID,19.7206,VALID,125,VALID,1.05384,
2002-01-25, 02:29:00,VALID,916.414,VALID,0,VALID,94.5171,VALID,-0.0339617,VALID,19.7072,VALID,110,VALID,1.4877,
2002-01-25, 02:30:00,VALID,916.385,VALID,0,VALID,94.4713,VALID,-0.0509425,VALID,19.7268,VALID,96,VALID,1.45436,
2002-01-25, 02:31:00,VALID,916.377,VALID,0,VALID,94.4497,VALID,-0.0679233,VALID,19.7231,VALID,101,VALID,0.310547,
2002-01-25, 02:32:00,VALID,916.353,VALID,0,VALID,94.278,VALID,0,VALID,19.73,VALID,114,VALID,1.15245,
2002-01-25, 02:33:00,VALID,916.323,VALID,0,VALID,94.2488,VALID,-0.0169808,VALID,19.7333,VALID,77,VALID,0.65815,
2002-01-25, 02:34:00,VALID,916.3,VALID,0,VALID,94.3098,VALID,-0.0339617,VALID,19.7266,VALID,82,VALID,0.494715,
2002-01-25, 02:35:00,VALID,916.297,VALID,0,VALID,94.381,VALID,-0.0339617,VALID,19.7042,VALID,94,VALID,0.998633,
2002-01-25, 02:36:00,VALID,916.3,VALID,0,VALID,94.4077,VALID,-0.0339617,VALID,19.6945,VALID,117,VALID,0.830929,
2002-01-25, 02:37:00,VALID,916.273,VALID,0,VALID,94.4472,VALID,-0.0169808,VALID,19.6784,VALID,142,VALID,0.746916,
2002-01-25, 02:38:00,VALID,916.256,VALID,0,VALID,94.4103,VALID,-0.0339617,VALID,19.659,VALID,138,VALID,0.91324,
2002-01-25, 02:39:00,VALID,916.241,VALID,0,VALID,94.4446,VALID,-0.0339617,VALID,19.656,VALID,113,VALID,0.449219,
2002-01-25, 02:40:00,VALID,916.238,VALID,0,VALID,94.5018,VALID,-0.0679233,VALID,19.6493,VALID,55,VALID,0.604646,
2002-01-25, 02:41:00,VALID,916.223,VALID,0,VALID,94.4917,VALID,-0.0509425,VALID,19.6366,VALID,92,VALID,0.788035,
2002-01-25, 02:42:00,VALID,916.216,VALID,0,VALID,94.5247,VALID,-0.0339617,VALID,19.6267,VALID,127,VALID,0.807855,
2002-01-25, 02:43:00,VALID,916.193,VALID,0,VALID,94.5349,VALID,-0.0169808,VALID,19.6272,VALID,106,VALID,0.223524,
2002-01-25, 02:44:00,VALID,916.185,VALID,0,VALID,94.5692,VALID,-0.0339617,VALID,19.6073,VALID,130,VALID,0.0998264,
2002-01-25, 02:45:00,VALID,916.181,VALID,0,VALID,94.6913,VALID,-0.0169808,VALID,19.6142,VALID,44,VALID,0.228087,
2002-01-25, 02:46:00,VALID,916.153,VALID,0,VALID,94.7282,VALID,-0.0339617,VALID,19.5946,VALID,51,VALID,0.583826,
2002-01-25, 02:47:00,VALID,916.138,VALID,0,VALID,94.7727,VALID,0,VALID,19.5849,VALID,65,VALID,0.577303,
2002-01-25, 02:48:00,VALID,916.137,VALID,0,VALID,94.9049,VALID,-0.0509425,VALID,19.5526,VALID,57,VALID,0.371094,
2002-01-25, 02:49:00,VALID,916.122,VALID,0,VALID,95.0359,VALID,-0.101885,VALID,19.5464,VALID,73,VALID,0.403392,
2002-01-25, 02:50:00,VALID,916.112,VALID,0,VALID,95.1351,VALID,-0.0339617,VALID,19.5369,VALID,44,VALID,0.214433,
2002-01-25, 02:51:00,VALID,916.104,VALID,0,VALID,95.2915,VALID,-0.0509425,VALID,19.5168,VALID,79,VALID,0.285156,
2002-01-25, 02:52:00,VALID,916.093,VALID,0,VALID,95.3246,VALID,-0.0339617,VALID,19.5044,VALID,61,VALID,0.290582,
2002-01-25, 02:53:00,VALID,916.08,VALID,0,VALID,95.4606,VALID,0,VALID,19.4848,VALID,43,VALID,0.0992399,
2002-01-25, 02:54:00,VALID,916.071,VALID,0,VALID,95.5725,VALID,-0.0339617,VALID,19.4778,VALID,84,VALID,0.310268,
2002-01-25, 02:55:00,VALID,916.046,VALID,0,VALID,95.5102,VALID,-0.0509425,VALID,19.4753,VALID,117,VALID,0.837377,
2002-01-25, 02:56:00,VALID,916.018,VALID,0,VALID,95.5331,VALID,0,VALID,19.4487,VALID,118,VALID,0.872889,
2002-01-25, 02:57:00,VALID,915.982,VALID,0,VALID,95.5051,VALID,-0.0169808,VALID,19.4492,VALID,144,VALID,1.00802,
2002-01-25, 02:58:00,VALID,915.965,VALID,0,VALID,95.3106,VALID,-0.0169808,VALID,19.4525,VALID,144,VALID,1.46896,
2002-01-25, 02:59:00,VALID,915.93,VALID,0,VALID,95.2012,VALID,-0.0339617,VALID,19.4649,VALID,142,VALID,1.29863,
2002-01-25, 03:00:00,VALID,915.914,VALID,0,VALID,95.0041,VALID,-0.0339617,VALID,19.4746,VALID,128,VALID,1.63877,
2002-01-25, 03:01:00,VALID,915.906,VALID,0,VALID,94.8935,VALID,-0.0509425,VALID,19.4945,VALID,126,VALID,0.860243,
2002-01-25, 03:02:00,VALID,915.882,VALID,0,VALID,94.8477,VALID,-0.0169808,VALID,19.5042,VALID,130,VALID,0.90984,
2002-01-25, 03:03:00,VALID,915.848,VALID,0,VALID,94.6773,VALID,0,VALID,19.5109,VALID,134,VALID,1.44742,
2002-01-25, 03:04:00,VALID,915.824,VALID,0,VALID,94.512,VALID,-0.0509425,VALID,19.5238,VALID,129,VALID,1.47863,
2002-01-25, 03:05:00,VALID,915.81,VALID,0,VALID,94.3035,VALID,-0.0339617,VALID,19.5263,VALID,143,VALID,1.27656,
2002-01-25, 03:06:00,VALID,915.812,VALID,0,VALID,94.2373,VALID,-0.0169808,VALID,19.5563,VALID,128,VALID,0.724359,
2002-01-25, 03:07:00,VALID,915.793,VALID,0,VALID,94.1916,VALID,-0.0339617,VALID,19.5561,VALID,139,VALID,1.19367,
2002-01-25, 03:08:00,VALID,915.776,VALID,0,VALID,94.1382,VALID,-0.0339617,VALID,19.5561,VALID,145,VALID,0.98972,
2002-01-25, 03:09:00,VALID,915.77,VALID,0,VALID,94.0313,VALID,-0.0169808,VALID,19.5591,VALID,121,VALID,1.3127,
2002-01-25, 03:10:00,VALID,915.758,VALID,0,VALID,93.9805,VALID,-0.0679233,VALID,19.5658,VALID,140,VALID,1.05613,
2002-01-25, 03:11:00,VALID,915.753,VALID,0,VALID,93.9843,VALID,-0.0339617,VALID,19.5757,VALID,136,VALID,0.919202,
2002-01-25, 03:12:00,VALID,915.743,VALID,0,VALID,93.9957,VALID,0,VALID,19.5747,VALID,148,VALID,1.57791,
2002-01-25, 03:13:00,VALID,915.734,VALID,0,VALID,94.0135,VALID,0,VALID,19.5725,VALID,142,VALID,1.04188,
2002-01-25, 03:14:00,VALID,915.717,VALID,0,VALID,94.0085,VALID,0,VALID,19.5717,VALID,139,VALID,1.62912,
2002-01-25, 03:15:00,VALID,915.714,VALID,0,VALID,93.9919,VALID,-0.0339617,VALID,19.5819,VALID,132,VALID,1.17283,
2002-01-25, 03:16:00,VALID,915.701,VALID,0,VALID,94.0123,VALID,-0.0169808,VALID,19.5755,VALID,124,VALID,1.06905,
2002-01-25, 03:17:00,VALID,915.682,VALID,0,VALID,93.9907,VALID,0.0169808,VALID,19.5623,VALID,131,VALID,1.0368,
2002-01-25, 03:18:00,VALID,915.66,VALID,0,VALID,93.9436,VALID,0,VALID,19.5563,VALID,136,VALID,1.06332,
2002-01-25, 03:19:00,VALID,915.647,VALID,0,VALID,93.8609,VALID,-0.0339617,VALID,19.5461,VALID,148,VALID,1.13643,
2002-01-25, 03:20:00,VALID,915.632,VALID,0,VALID,93.8495,VALID,0,VALID,19.5427,VALID,148,VALID,1.45806,
2002-01-25, 03:21:00,VALID,915.631,VALID,0,VALID,93.8444,VALID,-0.0509425,VALID,19.5397,VALID,146,VALID,0.681949,
2002-01-25, 03:22:00,VALID,915.633,VALID,0,VALID,93.8203,VALID,-0.0509425,VALID,19.5469,VALID,148,VALID,1.60156,
2002-01-25, 03:23:00,VALID,915.622,VALID,0,VALID,93.7618,VALID,-0.0339617,VALID,19.5464,VALID,152,VALID,1.09945,
2002-01-25, 03:24:00,VALID,915.611,VALID,0,VALID,93.6969,VALID,-0.0169808,VALID,19.5531,VALID,134,VALID,0.686384,
2002-01-25, 03:25:00,VALID,915.6,VALID,0,VALID,93.543,VALID,-0.0509425,VALID,19.5596,VALID,121,VALID,1.59067,
2002-01-25, 03:26:00,VALID,915.595,VALID,0,VALID,93.4769,VALID,0,VALID,19.5593,VALID,133,VALID,1.19193,
2002-01-25, 03:27:00,VALID,915.6,VALID,0,VALID,93.4439,VALID,-0.0509425,VALID,19.5596,VALID,114,VALID,0.671875,
2002-01-25, 03:28:00,VALID,915.603,VALID,0,VALID,93.4744,VALID,-0.0509425,VALID,19.5434,VALID,142,VALID,0.839527,
2002-01-25, 03:29:00,VALID,915.601,VALID,0,VALID,93.4807,VALID,-0.0339617,VALID,19.5402,VALID,119,VALID,0.673242,
2002-01-25, 03:30:00,VALID,915.599,VALID,0,VALID,93.4896,VALID,-0.0509425,VALID,19.534,VALID,126,VALID,0.648849,
2002-01-25, 03:31:00,VALID,915.576,VALID,0,VALID,93.5367,VALID,-0.0679233,VALID,19.5278,VALID,124,VALID,1.17426,
2002-01-25, 03:32:00,VALID,915.584,VALID,0,VALID,93.6054,VALID,-0.0679233,VALID,19.5104,VALID,140,VALID,0.948057,
2002-01-25, 03:33:00,VALID,915.568,VALID,0,VALID,93.6168,VALID,-0.0339617,VALID,19.5243,VALID,146,VALID,1.13471,